Regional Weather Roundup
Issued by NWS Cleveland, OH

Home | Current Version | Previous Version | Graphics & Text | Print | Product List | Glossary On
Versions: 1 2 3 4 5 6 7 8 9 10 11 12 13 14 15 16 17 18 19 20 21 22 23 24 25 26 27 28 29 30 31 32 33 34 35 36 37 38 39 40 41 42 43 44 45 46 47 48 49 50
000
ASUS41 KCLE 131600
RWRCLE
OHIO REGIONAL WEATHER ROUNDUP
NATIONAL WEATHER SERVICE WILMINGTON, OH
1100 AM EST WED DEC 13 2017

NOTE: "FAIR" INDICATES FEW OR NO CLOUDS BELOW 12,000 FEET WITH NO
SIGNIFICANT WEATHER AND/OR OBSTRUCTIONS TO VISIBILITY.

OHZ001>008-015>018-024>027-034-035-043-044-131700-
   NORTHWEST OHIO

CITY           SKY/WX    TMP DP  RH WIND       PRES   REMARKS
DEFIANCE       LGT SNOW  21  10  62 S12       29.72F WCI   9
FINDLAY        CLOUDY    23   8  52 S14       29.76F WCI  11
TOLEDO EXPRESS FLURRIES  20  12  71 S8        29.75F WCI  10
TOLEDO EXEC    LGT SNOW  21  15  78 S10       29.78F VSB 1   WCI  10
LIMA           CLOUDY    21  11  65 S13       29.73F WCI   9
$$

OHZ009>014-019>023-028>033-038-089-131700-
   NORTHEAST OHIO

CITY           SKY/WX    TMP DP  RH WIND       PRES   REMARKS
CLE-HOPKINS    CLOUDY    22  14  71 S12       29.81F WCI  10
CLE-LAKEFRONT  FAIR      23  12  62 S10       29.79F WCI  12
CUY CO. ARPT   CLOUDY    23  12  63 SW14      29.79F WCI  11
LORAIN-ELYRIA  CLOUDY    21  10  62 SW12      29.79F WCI   9
ASHTABULA      LGT SNOW  18  15  88 SW7       29.78F VSB 3/4 WCI   9
AKRON-CANTON   PTSUNNY   21  11  65 SW13      29.79F WCI   9
WOOSTER        NOT AVBL
MANSFIELD      CLOUDY    20  11  68 S14       29.77F HAZE    WCI   7
YOUNGSTOWN     FLURRIES  19   9  65 SW12      29.78S WCI   7
$$

OHZ042-051>053-060>062-070>072-077>081-131700-
  SOUTHWEST OHIO

CITY           SKY/WX    TMP DP  RH WIND       PRES   REMARKS
CINC-COVINGTON CLOUDY    27  10  49 S10       29.81F WCI  17
CINC-LUNKEN    CLOUDY    28  11  48 S9        29.87F WCI  19
HAMILTON       CLOUDY    28   8  43 S10G17    29.84F WCI  19
DAYTON         NOT AVBL
WRIGHT-PAT AFB NOT AVBL
DAYTON GENERAL CLOUDY    24  12  60 S12       29.80F WCI  13
WILMINGTON     PTSUNNY   24  12  60 SW14      29.81F WCI  12
$$

OHZ036-037-039>041-045>050-054>059-063>069-073>076-082>088-131700-
  CENTRAL AND SOUTHEAST OHIO

CITY           SKY/WX    TMP DP  RH WIND       PRES   REMARKS
COLUMBUS       PTSUNNY   22  12  65 S10       29.84F WCI  11
OSU AIRPORT    PTSUNNY   22  12  65 S8        29.82F WCI  12
BOLTON FIELD   CLOUDY    23  10  58 S9        29.83F WCI  13
RICKENBACK AFB NOT AVBL
NEWARK         CLOUDY    22  10  60 SW9       29.83F WCI  12
MARION         NOT AVBL
LANCASTER      PTSUNNY   22  11  62 S13       29.84F WCI  10
ZANESVILLE     CLOUDY    22   9  57 SW8       29.85F WCI  12
NEW PHILLY     PTSUNNY   22  11  62 SW8       29.84F WCI  12
$$




USA.gov is the U.S. government's official web portal to all federal, state and local government web resources and services.